FW3834 Weather Reports


time (UTC)temp
F
wind
direction
speed
knots
gust
knots
rain 1hr
in
rain 24hr
in
rain mn
in
humidity
%
barometer
mb
20260505052032 57 50 0.9 0.9 0.00 0.00 0.00 76 1009.7
20260505051032 57 52 0.9 1.7 0.00 0.00 0.00 76 1009.7
20260505041052 60 58 0.0 0.9 0.00 0.00 0.00 76 1009.7
20260505040032 60 55 0.0 0.9 0.00 0.00 0.00 75 1009.8
20260505035032 61 0.0 0.0 0.00 0.00 0.00 74 1009.6
20260505034032 61 75 0.0 0.9 0.00 0.00 0.00 74 1009.6
20260505033032 62 0.0 0.0 0.00 0.00 0.00 71 1009.5
20260505032032 62 0.0 0.0 0.00 0.00 0.00 70 1009.5
20260505031032 62 0.0 0.0 0.00 0.00 0.00 71 1009.3
20260505030032 63 0.0 0.0 0.00 0.00 0.00 71 1009.3
20260505025032 63 0.0 0.0 0.00 0.00 0.00 70 1009.2
20260505024052 64 67 0.0 0.9 0.00 0.00 0.00 70 1009.0
20260505023032 64 0.0 0.0 0.00 0.00 0.00 69 1009.1
20260505022032 65 67 0.0 0.9 0.00 0.00 0.00 70 1009.2
20260505021052 65 0.0 0.0 0.00 0.00 0.00 70 1009.4
20260505020053 66 72 0.0 0.9 0.00 0.00 0.00 68 1009.4
20260505015032 67 81 0.0 0.9 0.00 0.00 0.00 65 1009.6
20260505014032 67 70 0.0 0.9 0.00 0.00 0.00 65 1009.5
20260505013052 67 79 0.0 0.9 0.00 0.00 0.00 63 1009.5
20260505012052 68 67 0.0 0.9 0.00 0.00 0.00 62 1009.5
20260505011032 67 66 0.0 0.9 0.00 0.00 0.00 60 1009.5
20260505010032 68 71 0.0 0.9 0.00 0.00 0.00 59 1009.5
20260505005032 68 80 0.0 1.7 0.00 0.00 0.00 57 1009.4
20260505004032 68 0.0 0.0 0.00 0.00 0.00 60 1009.6
20260505003032 68 84 0.0 1.7 0.00 0.00 0.00 61 1009.5
20260505002032 68 0.0 0.0 0.00 0.00 0.00 61 1009.6
20260505001032 68 0.0 0.0 0.00 0.00 0.00 59 1009.6
20260505000032 69 84 0.0 0.9 0.00 0.00 0.00 59 1009.6
20260504235032 69 84 0.0 0.9 0.00 0.00 0.00 56 1009.7
20260504234032 70 0.0 0.0 0.00 0.00 0.00 53 1009.6
20260504233032 70 0.0 0.0 0.00 0.00 0.00 54 1009.6
20260504232032 70 0.0 0.0 0.00 0.00 0.00 55 1009.7
20260504231032 70 80 0.0 0.9 0.00 0.00 0.00 53 1009.8
20260504230032 71 80 0.0 0.9 0.00 0.00 0.00 53 1009.8
20260504225052 71 79 0.0 0.9 0.00 0.00 0.00 48 1009.9
20260504224032 71 68 0.0 0.9 0.00 0.00 0.00 47 1010.0
20260504223032 71 71 0.0 0.9 0.00 0.00 0.00 47 1010.1
20260504222032 72 76 0.0 0.9 0.00 0.00 0.00 47 1010.2
20260504221032 71 75 0.0 0.9 0.00 0.00 0.00 46 1010.2
20260504220052 71 71 0.0 0.9 0.00 0.00 0.00 50 1010.2
20260504215032 72 85 0.0 1.7 0.00 0.00 0.00 45 1010.3
20260504214032 71 0.0 0.0 0.00 0.00 0.00 45 1010.3
20260504213032 71 82 0.0 1.7 0.00 0.00 0.00 47 1010.4
20260504212032 72 85 0.9 2.6 0.00 0.00 0.00 47 1010.4
20260504211032 72 79 0.9 1.7 0.00 0.00 0.00 46 1010.5
20260504210032 72 85 1.7 2.6 0.00 0.00 0.00 45 1010.5
20260504205032 72 79 0.9 1.7 0.00 0.00 0.00 43 1010.4
20260504204032 72 85 1.7 2.6 0.00 0.00 0.00 42 1010.3
20260504203032 72 81 0.9 1.7 0.00 0.00 0.00 41 1010.4
20260504202032 72 81 1.7 1.7 0.00 0.00 0.00 39 1010.4
20260504201032 72 82 1.7 1.7 0.00 0.00 0.00 40 1010.5
20260504200032 72 80 0.9 1.7 0.00 0.00 0.00 41 1010.5
20260504195052 71 77 0.9 2.6 0.00 0.00 0.00 44 1010.6
20260504194032 72 77 0.9 1.7 0.00 0.00 0.00 43 1010.6
20260504193032 72 80 0.9 1.7 0.00 0.00 0.00 44 1010.6
20260504192032 72 80 1.7 1.7 0.00 0.00 0.00 43 1010.4
20260504191032 72 78 0.9 1.7 0.00 0.00 0.00 43 1010.4
20260504190032 72 77 0.9 1.7 0.00 0.00 0.00 43 1010.5
20260504185032 72 77 0.0 0.9 0.00 0.00 0.00 44 1010.5
20260504184032 72 80 0.9 0.9 0.00 0.00 0.00 44 1010.6
20260504183032 71 78 0.9 1.7 0.00 0.00 0.00 45 1010.7
20260504182032 72 83 0.9 1.7 0.00 0.00 0.00 45 1010.8
20260504181032 71 80 1.7 1.7 0.00 0.00 0.00 46 1010.7
20260504180032 71 81 0.9 1.7 0.00 0.00 0.00 45 1010.7
20260504175032 71 82 0.9 1.7 0.00 0.00 0.00 45 1010.8
20260504174032 71 81 0.9 1.7 0.00 0.00 0.00 46 1010.8
20260504173032 69 80 0.0 1.7 0.00 0.00 0.00 45 1010.8
20260504172032 69 80 0.9 1.7 0.00 0.00 0.00 46 1010.9
20260504171032 69 80 0.0 0.9 0.00 0.00 0.00 46 1010.9
20260504151032 58 63 0.0 0.9 0.00 0.00 0.00 69 1010.5
20260504141032 55 63 0.0 0.9 0.00 0.00 0.00 74 1010.1
20260504081052 55 63 0.9 0.9 0.00 0.00 0.00 68 1010.2